Overview Statistics Trail Chart Weather Telemetry Raw packets
 

This is the latest recevied weather packets stored in our database for station/object DB8NZ-22. If no packets are shown the sender has not sent any weather packets the latest 10 day(s).

<< 1 2 3 4 >>
Time Temp. Humidity Pressure Rain* Wind** Luminosity Snow
1788600445 25° C 43% 1021.8 hPa - - - -
1788599545 23.33° C 46% 1021.9 hPa - - - -
1788598645 23.89° C 49% 1021.7 hPa - - - -
1788597745 22.78° C 51% 1021.7 hPa - - - -
1788596845 22.22° C 53% 1021.7 hPa - - - -
1788595945 21.11° C 56% 1021.7 hPa - - - -
1788595045 20.56° C 59% 1021.7 hPa - - - -
1788594145 21.11° C 60% 1021.6 hPa - - - -
1788593244 20.56° C 61% 1021.5 hPa - - - -
1788592344 20° C 62% 1021.4 hPa - - - -
1788591444 20° C 62% 1021.3 hPa - - - -
1788590544 19.44° C 63% 1021.3 hPa - - - -
1788589644 18.89° C 63% 1021.3 hPa - - - -
1788588744 18.89° C 63% 1020.9 hPa - - - -
1788586043 18.33° C 62% 1020.5 hPa - - - -
1788585143 18.33° C 61% 1020.4 hPa - - - -
1788584242 18.33° C 62% 1020.3 hPa - - - -
1788583342 18.33° C 62% 1020.1 hPa - - - -
1788582442 18.33° C 61% 1019.9 hPa - - - -
1788581542 18.33° C 62% 1019.9 hPa - - - -
1788580642 18.33° C 62% 1019.6 hPa - - - -
1788580133 18.33° C 61% 1019.6 hPa - - - -
1788579233 18.33° C 60% 1019.5 hPa - - - -
1788578333 18.33° C 60% 1019.4 hPa - - - -
1788577433 18.33° C 59% 1019.2 hPa - - - -

* Rain since midnight (hover to see other rain measurements)
** Current wind speed in m/s (hover to see current wind gust speed)